[[{"header":{"parameterUnit":"m.s-1","parameterCategory":1,"la1":30.2992,"la2":30.254,"lo1":-89.0895,"lo2":-89.0443,"dy":0.0025,"dx":0.0025,"nx":19,"ny":19,"refTime":"2026-03-12T21:00:00:Z","depth":0,"parameterNumber":2,"parameterNumberName":"U-component_of_WINDS"},"data":[0,0,0,-0.7666,-0.7666,-0.7659,-0.7659,-0.7661,-0.7661,0,0,0,0,0,0,0,0,0,0,0,-0.7672,-0.7672,-0.7666,-0.7666,-0.7659,-0.7659,-0.7661,-0.7661,0,0,0,0,0,0,0,0,0,0,0,-0.7672,-0.7672,-0.7672,-0.7666,-0.766,-0.7659,-0.7661,-0.7662,0,0,0,0,0,0,0,0,0,0,-0.7667,-0.7676,-0.7672,-0.7672,-0.7666,-0.766,-0.7659,-0.7662,-0.7662,-0.7667,0,-0.7671,0,-0.7666,-0.7661,-0.7661,0,0,0,-0.7663,-0.7676,-0.7671,-0.7672,-0.7666,-0.766,-0.7661,-0.7662,-0.7662,-0.7667,-0.7671,-0.7671,-0.7666,-0.7661,-0.7661,-0.7697,-0.7697,0,0,-0.7663,-0.7673,-0.7671,-0.7671,-0.7671,-0.7662,-0.7661,-0.7662,-0.7667,-0.7671,-0.7671,-0.7666,-0.7661,-0.7661,-0.7697,-0.7697,0,0,0,-0.7666,-0.7673,-0.7668,-0.7671,-0.7669,-0.7662,-0.7661,-0.7667,-0.7665,-0.7671,-0.7666,-0.7661,-0.7661,-0.7696,-0.7697,-0.7721,0,0,0,-0.7666,-0.7675,-0.7668,-0.7674,-0.7669,-0.7668,-0.7667,-0.7665,-0.7664,-0.7666,-0.7661,-0.7662,-0.7696,-0.7697,-0.7719,-0.773,0,0,0,-0.7671,-0.7675,-0.7676,-0.7674,-0.7672,-0.7668,-0.7665,-0.7664,-0.7662,-0.7661,-0.7662,-0.7696,-0.7696,-0.7718,-0.7728,-0.7743,0,0,0,-0.7678,-0.7697,-0.7676,-0.7696,-0.7672,-0.7683,-0.7665,-0.7672,-0.7675,-0.7661,-0.7696,-0.7697,-0.7718,-0.7727,-0.7742,-0.7757,-0.7764,0,0,-0.7707,-0.7701,-0.7712,-0.7693,-0.7709,-0.7683,-0.7704,-0.7696,-0.7688,-0.7695,-0.7696,-0.772,-0.7728,-0.7743,-0.7802,-0.7807,0,0,0,-0.7724,-0.7732,-0.7734,-0.7737,-0.7732,-0.773,-0.7719,-0.7717,-0.7722,-0.7693,-0.7729,-0.7734,-0.7742,-0.7749,-0.7753,-0.776,-0.77,-0.77,-0.77,-0.7778,-0.7766,-0.7784,-0.7772,-0.7776,-0.7765,-0.7767,-0.7763,-0.775,-0.7759,-0.776,-0.7797,-0.7806,-0.7809,-0.7816,-0.7768,-0.7768,-0.7768,-0.7768,-0.7819,-0.7828,-0.7812,-0.7823,-0.7812,-0.7821,-0.7814,-0.7804,-0.7813,-0.7795,-0.7801,-0.7782,-0.7816,-0.7822,-0.777,-0.777,-0.7769,-0.7769,-0.7769,-0.7852,-0.7855,-0.7852,-0.7857,-0.7862,-0.785,-0.7859,-0.7849,-0.7839,-0.7846,-0.7847,-0.7846,-0.7844,-0.7847,-0.7847,-0.7847,-0.7847,-0.7848,-0.7848,-0.7887,-0.7884,-0.7892,-0.7891,-0.7892,-0.7893,-0.7885,-0.7887,-0.7886,-0.7878,-0.7878,-0.7865,-0.7821,-0.781,-0.785,-0.7849,-0.7849,-0.7849,-0.7849,-0.7932,-0.7921,-0.7933,-0.7935,-0.7934,-0.794,-0.7928,-0.7933,-0.7933,-0.7938,-0.7925,-0.7894,-0.7887,-0.7883,-0.7873,-0.7926,-0.7926,-0.7926,-0.7926,-0.7959,-0.7955,-0.7967,-0.797,-0.7973,-0.7964,-0.7981,-0.7976,-0.7969,-0.7969,-0.7961,-0.7948,-0.7945,-0.7939,-0.7934,-0.7925,-0.799,-0.799,-0.799,-0.7986,-0.7982,-0.7997,-0.799,-0.799,-0.799,-0.8005,-0.8012,-0.8002,-0.7993,-0.7969,-0.7967,-0.7946,-0.794,-0.7928,-0.792,-0.7903,0,0]},{"header":{"parameterUnit":"m.s-1","parameterCategory":1,"la1":30.2992,"la2":30.254,"lo1":-89.0895,"lo2":-89.0443,"dy":0.0025,"dx":0.0025,"nx":19,"ny":19,"refTime":"2026-03-12T21:00:00:Z","depth":0,"parameterNumber":3,"parameterNumberName":"V-component_of_WINDS"},"data":[0,0,0,1.8709,1.8708,1.868,1.868,1.8637,1.8636,0,0,0,0,0,0,0,0,0,0,0,1.8714,1.8714,1.8709,1.8708,1.868,1.868,1.8637,1.8636,0,0,0,0,0,0,0,0,0,0,0,1.8715,1.8714,1.8714,1.8708,1.868,1.868,1.8637,1.866,0,0,0,0,0,0,0,0,0,0,1.8689,1.8692,1.8714,1.8714,1.8708,1.868,1.868,1.8662,1.8659,1.8647,0,1.8638,0,1.8636,1.8633,1.8633,0,0,0,1.8709,1.8694,1.8689,1.8714,1.8707,1.868,1.8693,1.866,1.8657,1.8644,1.8637,1.8636,1.8636,1.8633,1.8633,1.8564,1.8564,0,0,1.8711,1.8707,1.8691,1.8687,1.8693,1.8694,1.8692,1.8658,1.865,1.8637,1.8635,1.8635,1.8633,1.8632,1.8564,1.8564,0,0,0,1.8714,1.8708,1.8704,1.8689,1.8684,1.8693,1.8691,1.8652,1.8651,1.8634,1.8635,1.8632,1.8632,1.8565,1.8564,1.8541,0,0,0,1.8715,1.8711,1.8705,1.8702,1.8685,1.8668,1.8685,1.8653,1.8649,1.8635,1.8632,1.8631,1.8565,1.8564,1.8543,1.853,0,0,0,1.8717,1.8711,1.8706,1.8702,1.869,1.8668,1.8666,1.8652,1.8649,1.8633,1.8631,1.8566,1.8565,1.8544,1.8532,1.851,0,0,0,1.8717,1.8685,1.8706,1.867,1.8691,1.8655,1.8666,1.864,1.8623,1.8632,1.8565,1.8564,1.8544,1.8534,1.8511,1.849,1.8481,0,0,1.8675,1.868,1.8659,1.8677,1.8637,1.866,1.8616,1.8604,1.8605,1.8577,1.8576,1.8542,1.8532,1.851,1.8434,1.8427,0,0,0,1.8644,1.8629,1.862,1.8604,1.8595,1.8586,1.8581,1.8576,1.8553,1.859,1.8529,1.8523,1.851,1.85,1.8494,1.8482,1.856,1.856,1.856,1.8578,1.8582,1.8548,1.8549,1.8534,1.853,1.8517,1.851,1.8518,1.8504,1.8495,1.8449,1.8436,1.8432,1.842,1.8485,1.8485,1.8485,1.8485,1.8514,1.8493,1.8506,1.8478,1.8482,1.8458,1.8452,1.8459,1.8436,1.8456,1.8444,1.8464,1.8424,1.8414,1.8483,1.8484,1.8484,1.8484,1.8484,1.847,1.846,1.8457,1.8435,1.8418,1.842,1.8398,1.8403,1.8407,1.8396,1.8387,1.8387,1.8387,1.8392,1.8392,1.8392,1.8391,1.8391,1.8391,1.8424,1.8421,1.8402,1.839,1.8381,1.8369,1.8365,1.8356,1.8347,1.8352,1.8352,1.8361,1.842,1.8434,1.8389,1.8389,1.839,1.839,1.839,1.8355,1.8372,1.8343,1.8334,1.832,1.8302,1.831,1.8291,1.8284,1.8272,1.8284,1.8328,1.8333,1.8338,1.8349,1.8284,1.8284,1.8284,1.8284,1.8316,1.832,1.8291,1.8277,1.8263,1.8267,1.8232,1.8229,1.8228,1.8224,1.8234,1.825,1.8255,1.8257,1.8264,1.8274,1.8192,1.8192,1.8192,1.8273,1.8277,1.8246,1.8247,1.8237,1.8228,1.8195,1.8177,1.8179,1.8188,1.822,1.8224,1.825,1.8259,1.8267,1.8277,1.8296,0,0]}]]